User: anonymous   Login
Location: Unspecified
(0.0000°N, 0.0000°E)
Time: 03:46:50
(UTC+00:00)
Language:

GALILEO 10 (206) - Orbit

View from above orbital plane
View from above orbital plane
View from above satellite
View from above satellite

Ground track
Ground track

The orbit data is extracted from the following two-line orbital elements,

1 40890U 15045B   19052.97858717 -.00000018 +00000-0 +00000-0 0  9995
2 40890 056.5360 295.3262 0002965 020.8827 339.1963 01.70474616021481
Epoch (UTC): 21 February 2019 23:29:09
Eccentricity: 0.0002965
inclination: 56.5360°
perigee height: 23213 km
apogee height: 23230 km
right ascension of ascending node: 295.3262°
argument of perigee: 20.8827°
revolutions per day: 1.70474616
mean anomaly at epoch: 339.1963°
orbit number at epoch: 2148

The dashed part of the orbit path shows where the satellite is in the earth's shadow,  

DLR